TimeEST,TemperatureF,Dew PointF,Humidity,Sea Level PressureIn,VisibilityMPH,Wind Direction,Wind SpeedMPH,Gust SpeedMPH,PrecipitationIn,Events,Conditions,WindDirDegrees,DateUTC
12:54 AM,25.0,19.9,81,30.29,10.0,Calm,Calm,-,N/A,,Clear,0,2012-12-14 05:54:00
1:54 AM,26.1,19.9,78,30.28,10.0,Calm,Calm,-,N/A,,Clear,0,2012-12-14 06:54:00
2:54 AM,23.0,19.9,88,30.28,9.0,ESE,3.5,-,N/A,,Clear,110,2012-12-14 07:54:00
3:54 AM,21.9,19.0,89,30.27,9.0,Calm,Calm,-,N/A,,Clear,0,2012-12-14 08:54:00
4:54 AM,21.9,19.0,89,30.26,8.0,Calm,Calm,-,N/A,,Clear,0,2012-12-14 09:54:00
5:54 AM,21.9,19.0,89,30.26,8.0,Calm,Calm,-,N/A,,Clear,0,2012-12-14 10:54:00
6:54 AM,23.0,19.0,85,30.26,8.0,Calm,Calm,-,N/A,,Clear,0,2012-12-14 11:54:00
7:54 AM,27.0,21.0,78,30.27,8.0,SSW,3.5,-,N/A,,Clear,200,2012-12-14 12:54:00
8:54 AM,28.0,21.9,78,30.25,7.0,Calm,Calm,-,N/A,,Clear,0,2012-12-14 13:54:00
9:54 AM,33.1,24.1,70,30.26,8.0,WSW,6.9,-,N/A,,Clear,240,2012-12-14 14:54:00
10:54 AM,37.0,24.1,59,30.24,10.0,Variable,5.8,-,N/A,,Clear,0,2012-12-14 15:54:00
11:54 AM,39.9,23.0,51,30.21,10.0,SW,11.5,-,N/A,,Clear,230,2012-12-14 16:54:00
12:54 PM,42.1,23.0,47,30.19,10.0,WSW,8.1,-,0.01,,Clear,240,2012-12-14 17:54:00
1:54 PM,44.1,24.1,45,30.18,10.0,WSW,8.1,-,N/A,,Clear,240,2012-12-14 18:54:00
2:54 PM,43.0,24.1,47,30.19,10.0,WSW,5.8,-,N/A,,Clear,240,2012-12-14 19:54:00
3:54 PM,43.0,24.1,47,30.19,10.0,SW,4.6,-,N/A,,Clear,220,2012-12-14 20:54:00
4:54 PM,39.9,24.1,53,30.20,10.0,SSW,3.5,-,N/A,,Clear,210,2012-12-14 21:54:00
5:54 PM,36.0,25.0,64,30.22,10.0,Calm,Calm,-,N/A,,Clear,0,2012-12-14 22:54:00
6:54 PM,34.0,25.0,70,30.23,10.0,Calm,Calm,-,N/A,,Clear,0,2012-12-14 23:54:00
7:54 PM,33.1,25.0,72,30.25,10.0,Calm,Calm,-,N/A,,Clear,0,2012-12-15 00:54:00
8:54 PM,32.0,24.1,73,30.24,10.0,Calm,Calm,-,N/A,,Clear,0,2012-12-15 01:54:00
9:54 PM,30.0,24.1,79,30.24,10.0,Calm,Calm,-,N/A,,Clear,0,2012-12-15 02:54:00
10:54 PM,28.9,24.1,82,30.26,10.0,Calm,Calm,-,N/A,,Clear,0,2012-12-15 03:54:00
11:54 PM,28.0,25.0,88,30.26,10.0,Calm,Calm,-,N/A,,Clear,0,2012-12-15 04:54:00